owner,sensor,date,latitude,longitude,vertical_datum,sea_water_temperature,qcFlag
Amerada Hess,ioos:station:wmo:42917:1,2021-12-15T21:05:00Z,27.4657,-90.5629,11.0,25.2,11111222
Amerada Hess,ioos:station:wmo:42917:1,2021-12-15T21:15:00Z,27.4656,-90.5630,11.0,25.2,11111222
Amerada Hess,ioos:station:wmo:42917:1,2021-12-15T21:25:00Z,27.4659,-90.5629,11.0,25.2,11111222
Amerada Hess,ioos:station:wmo:42917:1,2021-12-15T21:35:00Z,27.4663,-90.5625,11.0,25.2,11111222
Amerada Hess,ioos:station:wmo:42917:1,2021-12-15T21:45:00Z,27.4656,-90.5633,11.0,25.4,11111222
Amerada Hess,ioos:station:wmo:42917:1,2021-12-15T21:55:00Z,27.4655,-90.5632,11.0,25.4,11111222
Amerada Hess,ioos:station:wmo:42917:1,2021-12-15T22:05:00Z,27.4654,-90.5633,11.0,25.4,11111222
Amerada Hess,ioos:station:wmo:42917:1,2021-12-15T22:15:00Z,27.4656,-90.5632,11.0,25.4,11111222
Amerada Hess,ioos:station:wmo:42917:1,2021-12-15T22:25:00Z,27.4658,-90.5630,11.0,25.4,11111222
Amerada Hess,ioos:station:wmo:42917:1,2021-12-15T22:35:00Z,27.4658,-90.5629,11.0,25.4,11111222
Amerada Hess,ioos:station:wmo:42917:1,2021-12-15T22:45:00Z,27.4654,-90.5634,11.0,25.4,11111222
Amerada Hess,ioos:station:wmo:42917:1,2021-12-15T22:55:00Z,27.4646,-90.5644,11.0,25.4,11111222
Amerada Hess,ioos:station:wmo:42917:1,2021-12-15T23:05:00Z,27.4639,-90.5653,11.0,25.4,11111222
Amerada Hess,ioos:station:wmo:42917:1,2021-12-15T23:15:00Z,27.4634,-90.5660,11.0,25.4,11111222
Amerada Hess,ioos:station:wmo:42917:1,2021-12-15T23:25:00Z,27.4628,-90.5667,11.0,25.4,11111222
Amerada Hess,ioos:station:wmo:42917:1,2021-12-15T23:35:00Z,27.4622,-90.5674,11.0,25.4,11111222
Amerada Hess,ioos:station:wmo:42917:1,2021-12-15T23:45:00Z,27.4617,-90.5682,11.0,25.4,11111222
Amerada Hess,ioos:station:wmo:42917:1,2021-12-15T23:55:00Z,27.4612,-90.5689,11.0,25.3,11111222
Amerada Hess,ioos:station:wmo:42917:1,2021-12-16T00:05:00Z,27.4606,-90.5695,11.0,25.2,11111222
Amerada Hess,ioos:station:wmo:42917:1,2021-12-16T00:15:00Z,27.4601,-90.5704,11.0,25.2,11111222
Amerada Hess,ioos:station:wmo:42917:1,2021-12-16T00:25:00Z,27.4595,-90.5709,11.0,25.1,11111222
Amerada Hess,ioos:station:wmo:42917:1,2021-12-16T00:35:00Z,27.4589,-90.5716,11.0,25.1,11111222
Amerada Hess,ioos:station:wmo:42917:1,2021-12-16T00:45:00Z,27.4584,-90.5724,11.0,25.1,11111222
Amerada Hess,ioos:station:wmo:42917:1,2021-12-16T00:55:00Z,27.4580,-90.5729,11.0,25.1,11111222
Amerada Hess,ioos:station:wmo:42917:1,2021-12-16T01:05:00Z,27.4574,-90.5736,11.0,25.1,11111222
Amerada Hess,ioos:station:wmo:42917:1,2021-12-16T01:15:00Z,27.4569,-90.5743,11.0,25.2,11111222
Amerada Hess,ioos:station:wmo:42917:1,2021-12-16T01:25:00Z,27.4562,-90.5747,11.0,25.2,11111222
Amerada Hess,ioos:station:wmo:42917:1,2021-12-16T01:35:00Z,27.4558,-90.5754,11.0,25.2,11111222
Amerada Hess,ioos:station:wmo:42917:1,2021-12-16T01:45:00Z,27.4551,-90.5760,11.0,25.3,11111222
Amerada Hess,ioos:station:wmo:42917:1,2021-12-16T01:55:00Z,27.4545,-90.5769,11.0,25.2,11111222
Amerada Hess,ioos:station:wmo:42917:1,2021-12-16T02:05:00Z,27.4538,-90.5778,11.0,25.1,11111222
Amerada Hess,ioos:station:wmo:42917:1,2021-12-16T02:15:00Z,27.4532,-90.5785,11.0,25.2,11111222
Amerada Hess,ioos:station:wmo:42917:1,2021-12-16T02:25:00Z,27.4527,-90.5794,11.0,25.2,11111222
Amerada Hess,ioos:station:wmo:42917:1,2021-12-16T02:35:00Z,27.4521,-90.5800,11.0,25.1,11111222
Amerada Hess,ioos:station:wmo:42917:1,2021-12-16T02:45:00Z,27.4517,-90.5807,11.0,25.1,11111222
Amerada Hess,ioos:station:wmo:42917:1,2021-12-16T02:55:00Z,27.4512,-90.5815,11.0,25.2,11111222
Amerada Hess,ioos:station:wmo:42917:1,2021-12-16T03:05:00Z,27.4505,-90.5822,11.0,25.1,11111222
Amerada Hess,ioos:station:wmo:42917:1,2021-12-16T03:15:00Z,27.4499,-90.5828,11.0,25.1,11111222
Amerada Hess,ioos:station:wmo:42917:1,2021-12-16T03:25:00Z,27.4494,-90.5835,11.0,25.2,11111222
Amerada Hess,ioos:station:wmo:42917:1,2021-12-16T03:35:00Z,27.4489,-90.5841,11.0,25.1,11111222
Amerada Hess,ioos:station:wmo:42917:1,2021-12-16T03:45:00Z,27.4482,-90.5849,11.0,25.1,11111222
Amerada Hess,ioos:station:wmo:42917:1,2021-12-16T03:55:00Z,27.4477,-90.5856,11.0,25.2,11111222
Amerada Hess,ioos:station:wmo:42917:1,2021-12-16T04:05:00Z,27.4473,-90.5863,11.0,25.1,11111222
Amerada Hess,ioos:station:wmo:42917:1,2021-12-16T04:15:00Z,27.4467,-90.5868,11.0,25.1,11111222
Amerada Hess,ioos:station:wmo:42917:1,2021-12-16T04:25:00Z,27.4461,-90.5875,11.0,25.1,11111222
Amerada Hess,ioos:station:wmo:42917:1,2021-12-16T04:35:00Z,27.4455,-90.5883,11.0,25.0,11111222
Amerada Hess,ioos:station:wmo:42917:1,2021-12-16T04:45:00Z,27.4451,-90.5892,11.0,25.0,11111222
Amerada Hess,ioos:station:wmo:42917:1,2021-12-16T04:55:00Z,27.4444,-90.5898,11.0,25.0,11111222
Amerada Hess,ioos:station:wmo:42917:1,2021-12-16T05:05:00Z,27.4439,-90.5904,11.0,25.0,11111222
Amerada Hess,ioos:station:wmo:42917:1,2021-12-16T05:15:00Z,27.4437,-90.5907,11.0,25.0,11111222
Amerada Hess,ioos:station:wmo:42917:1,2021-12-16T05:25:00Z,27.4438,-90.5908,11.0,24.9,11111222
Amerada Hess,ioos:station:wmo:42917:1,2021-12-16T05:35:00Z,27.4437,-90.5908,11.0,24.9,11111222
Amerada Hess,ioos:station:wmo:42917:1,2021-12-16T05:45:00Z,27.4439,-90.5905,11.0,24.9,11111222
Amerada Hess,ioos:station:wmo:42917:1,2021-12-16T05:55:00Z,27.4440,-90.5905,11.0,24.9,11111222
Amerada Hess,ioos:station:wmo:42917:1,2021-12-16T06:05:00Z,27.4440,-90.5905,11.0,24.9,11111222
Amerada Hess,ioos:station:wmo:42917:1,2021-12-16T06:15:00Z,27.4440,-90.5905,11.0,24.9,11111222
Amerada Hess,ioos:station:wmo:42917:1,2021-12-16T06:25:00Z,27.4440,-90.5906,11.0,24.9,11111222
Amerada Hess,ioos:station:wmo:42917:1,2021-12-16T06:35:00Z,27.4440,-90.5906,11.0,24.9,11111222
Amerada Hess,ioos:station:wmo:42917:1,2021-12-16T06:45:00Z,27.4441,-90.5905,11.0,24.9,11111222
Amerada Hess,ioos:station:wmo:42917:1,2021-12-16T06:55:00Z,27.4441,-90.5905,11.0,24.9,11111222
Amerada Hess,ioos:station:wmo:42917:1,2021-12-16T07:05:00Z,27.4440,-90.5906,11.0,24.9,11111222
Amerada Hess,ioos:station:wmo:42917:1,2021-12-16T07:15:00Z,27.4441,-90.5907,11.0,24.9,11111222
Amerada Hess,ioos:station:wmo:42917:1,2021-12-16T07:25:00Z,27.4422,-90.5926,11.0,24.9,11111222
Amerada Hess,ioos:station:wmo:42917:1,2021-12-16T07:35:00Z,27.4405,-90.5949,11.0,25.0,11111222
Amerada Hess,ioos:station:wmo:42917:1,2021-12-16T07:45:00Z,27.4387,-90.5973,11.0,25.0,11111222
Amerada Hess,ioos:station:wmo:42917:1,2021-12-16T07:55:00Z,27.4369,-90.5998,11.0,25.0,11111222
Amerada Hess,ioos:station:wmo:42917:1,2021-12-16T08:05:00Z,27.4346,-90.6020,11.0,25.0,11111222
Amerada Hess,ioos:station:wmo:42917:1,2021-12-16T08:15:00Z,27.4328,-90.6042,11.0,25.0,11111222
Amerada Hess,ioos:station:wmo:42917:1,2021-12-16T08:25:00Z,27.4310,-90.6066,11.0,25.0,11111222
Amerada Hess,ioos:station:wmo:42917:1,2021-12-16T08:35:00Z,27.4290,-90.6090,11.0,25.0,11111222
Amerada Hess,ioos:station:wmo:42917:1,2021-12-16T08:45:00Z,27.4272,-90.6112,11.0,25.0,11111222
Amerada Hess,ioos:station:wmo:42917:1,2021-12-16T08:55:00Z,27.4252,-90.6135,11.0,25.0,11111222
Amerada Hess,ioos:station:wmo:42917:1,2021-12-16T09:05:00Z,27.4234,-90.6158,11.0,24.9,11111222
Amerada Hess,ioos:station:wmo:42917:1,2021-12-16T09:15:00Z,27.4215,-90.6181,11.0,24.9,11111222
Amerada Hess,ioos:station:wmo:42917:1,2021-12-16T09:25:00Z,27.4197,-90.6204,11.0,25.0,11111222
Amerada Hess,ioos:station:wmo:42917:1,2021-12-16T09:35:00Z,27.4178,-90.6227,11.0,25.2,11111222
Amerada Hess,ioos:station:wmo:42917:1,2021-12-16T09:45:00Z,27.4160,-90.6250,11.0,25.3,11111222
Amerada Hess,ioos:station:wmo:42917:1,2021-12-16T09:55:00Z,27.4141,-90.6275,11.0,25.4,11111222
Amerada Hess,ioos:station:wmo:42917:1,2021-12-16T10:05:00Z,27.4122,-90.6298,11.0,25.5,11111222
Amerada Hess,ioos:station:wmo:42917:1,2021-12-16T10:15:00Z,27.4103,-90.6322,11.0,25.6,11111222
Amerada Hess,ioos:station:wmo:42917:1,2021-12-16T10:25:00Z,27.4085,-90.6345,11.0,25.6,11111222
Amerada Hess,ioos:station:wmo:42917:1,2021-12-16T10:35:00Z,27.4067,-90.6367,11.0,25.6,11111222
Amerada Hess,ioos:station:wmo:42917:1,2021-12-16T10:45:00Z,27.4048,-90.6391,11.0,25.6,11111222
Amerada Hess,ioos:station:wmo:42917:1,2021-12-16T10:55:00Z,27.4029,-90.6414,11.0,25.6,11111222
Amerada Hess,ioos:station:wmo:42917:1,2021-12-16T11:05:00Z,27.4011,-90.6437,11.0,25.7,11111222
Amerada Hess,ioos:station:wmo:42917:1,2021-12-16T11:15:00Z,27.3994,-90.6460,11.0,25.7,11111222
Amerada Hess,ioos:station:wmo:42917:1,2021-12-16T11:25:00Z,27.3974,-90.6483,11.0,25.7,11111222
Amerada Hess,ioos:station:wmo:42917:1,2021-12-16T11:35:00Z,27.3956,-90.6505,11.0,25.7,11111222
Amerada Hess,ioos:station:wmo:42917:1,2021-12-16T11:45:00Z,27.3936,-90.6529,11.0,25.7,11111222
Amerada Hess,ioos:station:wmo:42917:1,2021-12-16T11:55:00Z,27.3917,-90.6551,11.0,25.7,11111222
Amerada Hess,ioos:station:wmo:42917:1,2021-12-16T12:05:00Z,27.3898,-90.6575,11.0,25.7,11111222
Amerada Hess,ioos:station:wmo:42917:1,2021-12-16T12:15:00Z,27.3879,-90.6598,11.0,25.6,11111222
Amerada Hess,ioos:station:wmo:42917:1,2021-12-16T12:25:00Z,27.3867,-90.6613,11.0,25.6,11111222
Amerada Hess,ioos:station:wmo:42917:1,2021-12-16T12:35:00Z,27.3850,-90.6636,11.0,25.6,11111222
Amerada Hess,ioos:station:wmo:42917:1,2021-12-16T12:45:00Z,27.3833,-90.6659,11.0,25.6,11111222
Amerada Hess,ioos:station:wmo:42917:1,2021-12-16T12:55:00Z,27.3813,-90.6683,11.0,25.6,11111222
Amerada Hess,ioos:station:wmo:42917:1,2021-12-16T13:05:00Z,27.3794,-90.6706,11.0,25.6,11111222
Amerada Hess,ioos:station:wmo:42917:1,2021-12-16T13:15:00Z,27.3775,-90.6729,11.0,25.6,11111222
Amerada Hess,ioos:station:wmo:42917:1,2021-12-16T13:25:00Z,27.3759,-90.6751,11.0,25.6,11111222
Amerada Hess,ioos:station:wmo:42917:1,2021-12-16T13:35:00Z,27.3757,-90.6751,11.0,25.5,11111222
Amerada Hess,ioos:station:wmo:42917:1,2021-12-16T13:45:00Z,27.3756,-90.6749,11.0,25.5,11111222
Amerada Hess,ioos:station:wmo:42917:1,2021-12-16T13:55:00Z,27.3757,-90.6751,11.0,25.5,11111222
Amerada Hess,ioos:station:wmo:42917:1,2021-12-16T14:05:00Z,27.3756,-90.6751,11.0,25.5,11111222
Amerada Hess,ioos:station:wmo:42917:1,2021-12-16T14:15:00Z,27.3754,-90.6752,11.0,25.5,11111222
Amerada Hess,ioos:station:wmo:42917:1,2021-12-16T14:25:00Z,27.3756,-90.6750,11.0,25.5,11111222
Amerada Hess,ioos:station:wmo:42917:1,2021-12-16T14:35:00Z,27.3755,-90.6752,11.0,25.5,11111222
Amerada Hess,ioos:station:wmo:42917:1,2021-12-16T14:45:00Z,27.3757,-90.6751,11.0,25.5,11111222
Amerada Hess,ioos:station:wmo:42917:1,2021-12-16T14:55:00Z,27.3758,-90.6750,11.0,25.5,11111222
Amerada Hess,ioos:station:wmo:42917:1,2021-12-16T15:05:00Z,27.3758,-90.6750,11.0,25.5,11111222
Amerada Hess,ioos:station:wmo:42917:1,2021-12-16T15:15:00Z,27.3758,-90.6749,11.0,25.5,11111222
Amerada Hess,ioos:station:wmo:42917:1,2021-12-16T15:25:00Z,27.3757,-90.6749,11.0,25.5,11111222
Amerada Hess,ioos:station:wmo:42917:1,2021-12-16T15:35:00Z,27.3758,-90.6748,11.0,25.5,11111222
Amerada Hess,ioos:station:wmo:42917:1,2021-12-16T15:45:00Z,27.3758,-90.6748,11.0,25.5,11111222
Amerada Hess,ioos:station:wmo:42917:1,2021-12-16T15:55:00Z,27.3758,-90.6748,11.0,25.5,11111222
Amerada Hess,ioos:station:wmo:42917:1,2021-12-16T16:05:00Z,27.3757,-90.6749,11.0,25.5,11111222
Amerada Hess,ioos:station:wmo:42917:1,2021-12-16T16:15:00Z,27.3755,-90.6750,11.0,25.5,11111222
Amerada Hess,ioos:station:wmo:42917:1,2021-12-16T16:25:00Z,27.3756,-90.6752,11.0,25.5,11111222
Amerada Hess,ioos:station:wmo:42917:1,2021-12-16T16:35:00Z,27.3754,-90.6751,11.0,25.5,11111222
Amerada Hess,ioos:station:wmo:42917:1,2021-12-16T16:45:00Z,27.3756,-90.6750,11.0,25.5,11111222
Amerada Hess,ioos:station:wmo:42917:1,2021-12-16T16:55:00Z,27.3756,-90.6750,11.0,25.5,11111222
Amerada Hess,ioos:station:wmo:42917:1,2021-12-16T17:05:00Z,27.3756,-90.6751,11.0,25.5,11111222
Amerada Hess,ioos:station:wmo:42917:1,2021-12-16T17:15:00Z,27.3755,-90.6750,11.0,25.5,11111222
Amerada Hess,ioos:station:wmo:42917:1,2021-12-16T17:25:00Z,27.3756,-90.6751,11.0,25.5,11111222
Amerada Hess,ioos:station:wmo:42917:1,2021-12-16T17:35:00Z,27.3756,-90.6752,11.0,25.5,11111222
Amerada Hess,ioos:station:wmo:42917:1,2021-12-16T17:45:00Z,27.3756,-90.6752,11.0,25.5,11111222
Amerada Hess,ioos:station:wmo:42917:1,2021-12-16T17:55:00Z,27.3756,-90.6751,11.0,25.5,11111222
Amerada Hess,ioos:station:wmo:42917:1,2021-12-16T18:05:00Z,27.3756,-90.6749,11.0,25.5,11111222
Amerada Hess,ioos:station:wmo:42917:1,2021-12-16T18:15:00Z,27.3756,-90.6750,11.0,25.5,11111222
Amerada Hess,ioos:station:wmo:42917:1,2021-12-16T18:25:00Z,27.3756,-90.6750,11.0,25.6,11111222
Amerada Hess,ioos:station:wmo:42917:1,2021-12-16T18:35:00Z,27.3760,-90.6749,11.0,25.6,11111222
Amerada Hess,ioos:station:wmo:42917:1,2021-12-16T18:45:00Z,27.3766,-90.6733,11.0,25.6,11111222
Amerada Hess,ioos:station:wmo:42917:1,2021-12-16T18:55:00Z,27.3767,-90.6734,11.0,25.6,11111222
Amerada Hess,ioos:station:wmo:42917:1,2021-12-16T19:05:00Z,27.3765,-90.6735,11.0,25.6,11111222
Amerada Hess,ioos:station:wmo:42917:1,2021-12-16T19:15:00Z,27.3766,-90.6735,11.0,25.6,11111222
Amerada Hess,ioos:station:wmo:42917:1,2021-12-16T19:25:00Z,27.3766,-90.6734,11.0,25.6,11111222
Amerada Hess,ioos:station:wmo:42917:1,2021-12-16T19:35:00Z,27.3765,-90.6734,11.0,25.6,11111222
Amerada Hess,ioos:station:wmo:42917:1,2021-12-16T19:45:00Z,27.3766,-90.6733,11.0,25.6,11111222
Amerada Hess,ioos:station:wmo:42917:1,2021-12-17T01:55:00Z,27.3764,-90.6734,11.0,25.6,11111222
Amerada Hess,ioos:station:wmo:42917:1,2021-12-17T02:05:00Z,27.3771,-90.6728,11.0,25.5,11111222
Amerada Hess,ioos:station:wmo:42917:1,2021-12-17T02:15:00Z,27.3770,-90.6728,11.0,25.6,11111222
Amerada Hess,ioos:station:wmo:42917:1,2021-12-17T02:25:00Z,27.3770,-90.6729,11.0,25.5,11111222
Amerada Hess,ioos:station:wmo:42917:1,2021-12-17T02:35:00Z,27.3770,-90.6727,11.0,25.5,11111222
Amerada Hess,ioos:station:wmo:42917:1,2021-12-17T02:45:00Z,27.3771,-90.6726,11.0,25.5,11111222
Amerada Hess,ioos:station:wmo:42917:1,2021-12-17T02:55:00Z,27.3770,-90.6727,11.0,25.5,11111222
Amerada Hess,ioos:station:wmo:42917:1,2021-12-17T03:05:00Z,27.3771,-90.6725,11.0,25.6,11111222
Amerada Hess,ioos:station:wmo:42917:1,2021-12-17T03:15:00Z,27.3772,-90.6727,11.0,25.6,11111222
Amerada Hess,ioos:station:wmo:42917:1,2021-12-17T03:25:00Z,27.3771,-90.6726,11.0,25.6,11111222
Amerada Hess,ioos:station:wmo:42917:1,2021-12-17T03:35:00Z,27.3771,-90.6726,11.0,25.5,11111222
Amerada Hess,ioos:station:wmo:42917:1,2021-12-17T03:45:00Z,27.3772,-90.6727,11.0,25.5,11111222
Amerada Hess,ioos:station:wmo:42917:1,2021-12-17T03:55:00Z,27.3771,-90.6727,11.0,25.5,11111222
Amerada Hess,ioos:station:wmo:42917:1,2021-12-17T04:05:00Z,27.3770,-90.6725,11.0,25.5,11111222
Amerada Hess,ioos:station:wmo:42917:1,2021-12-17T04:15:00Z,27.3769,-90.6725,11.0,25.5,11111222
Amerada Hess,ioos:station:wmo:42917:1,2021-12-17T04:25:00Z,27.3769,-90.6726,11.0,25.5,11111222
Amerada Hess,ioos:station:wmo:42917:1,2021-12-17T04:35:00Z,27.3769,-90.6726,11.0,25.5,11111222
Amerada Hess,ioos:station:wmo:42917:1,2021-12-17T04:45:00Z,27.3770,-90.6726,11.0,25.5,11111222
Amerada Hess,ioos:station:wmo:42917:1,2021-12-17T04:55:00Z,27.3770,-90.6727,11.0,25.5,11111222
Amerada Hess,ioos:station:wmo:42917:1,2021-12-17T05:05:00Z,27.3772,-90.6719,11.0,25.5,11111222
Amerada Hess,ioos:station:wmo:42917:1,2021-12-17T05:15:00Z,27.3774,-90.6720,11.0,25.5,11111222
Amerada Hess,ioos:station:wmo:42917:1,2021-12-17T05:25:00Z,27.3773,-90.6718,11.0,25.6,11111222
Amerada Hess,ioos:station:wmo:42917:1,2021-12-17T05:35:00Z,27.3776,-90.6719,11.0,25.6,11111222
Amerada Hess,ioos:station:wmo:42917:1,2021-12-17T05:45:00Z,27.3776,-90.6720,11.0,25.6,11111222
Amerada Hess,ioos:station:wmo:42917:1,2021-12-17T05:55:00Z,27.3779,-90.6717,11.0,25.6,11111222
Amerada Hess,ioos:station:wmo:42917:1,2021-12-17T06:15:00Z,27.3779,-90.6716,11.0,25.5,11111222
Amerada Hess,ioos:station:wmo:42917:1,2021-12-17T06:25:00Z,27.3779,-90.6716,11.0,25.4,11111222
Amerada Hess,ioos:station:wmo:42917:1,2021-12-17T06:35:00Z,27.3780,-90.6715,11.0,25.4,11111222
Amerada Hess,ioos:station:wmo:42917:1,2021-12-17T06:45:00Z,27.3778,-90.6716,11.0,25.5,11111222
Amerada Hess,ioos:station:wmo:42917:1,2021-12-17T06:55:00Z,27.3778,-90.6717,11.0,25.4,11111222
Amerada Hess,ioos:station:wmo:42917:1,2021-12-17T07:05:00Z,27.3779,-90.6715,11.0,25.5,11111222
Amerada Hess,ioos:station:wmo:42917:1,2021-12-17T07:15:00Z,27.3777,-90.6714,11.0,25.5,11111222
Amerada Hess,ioos:station:wmo:42917:1,2021-12-17T07:25:00Z,27.3781,-90.6713,11.0,25.6,11111222
Amerada Hess,ioos:station:wmo:42917:1,2021-12-17T07:35:00Z,27.3800,-90.6691,11.0,25.6,11111222
Amerada Hess,ioos:station:wmo:42917:1,2021-12-17T07:45:00Z,27.3809,-90.6678,11.0,25.6,11111222
Amerada Hess,ioos:station:wmo:42917:1,2021-12-17T07:55:00Z,27.3809,-90.6679,11.0,25.6,11111222
Amerada Hess,ioos:station:wmo:42917:1,2021-12-17T08:05:00Z,27.3809,-90.6678,11.0,25.6,11111222
Amerada Hess,ioos:station:wmo:42917:1,2021-12-17T08:15:00Z,27.3812,-90.6674,11.0,25.6,11111222
Amerada Hess,ioos:station:wmo:42917:1,2021-12-17T08:25:00Z,27.3822,-90.6665,11.0,25.6,11111222
Amerada Hess,ioos:station:wmo:42917:1,2021-12-17T08:35:00Z,27.3823,-90.6664,11.0,25.6,11111222
Amerada Hess,ioos:station:wmo:42917:1,2021-12-17T08:45:00Z,27.3830,-90.6653,11.0,25.6,11111222
Amerada Hess,ioos:station:wmo:42917:1,2021-12-17T08:55:00Z,27.3831,-90.6653,11.0,25.7,11111222
Amerada Hess,ioos:station:wmo:42917:1,2021-12-17T09:05:00Z,27.3835,-90.6648,11.0,25.7,11111222
Amerada Hess,ioos:station:wmo:42917:1,2021-12-17T09:15:00Z,27.3841,-90.6641,11.0,25.7,11111222
Amerada Hess,ioos:station:wmo:42917:1,2021-12-17T09:25:00Z,27.3853,-90.6628,11.0,25.7,11111222
Amerada Hess,ioos:station:wmo:42917:1,2021-12-17T09:35:00Z,27.3868,-90.6606,11.0,25.7,11111222
Amerada Hess,ioos:station:wmo:42917:1,2021-12-17T09:45:00Z,27.3869,-90.6607,11.0,25.7,11111222
Amerada Hess,ioos:station:wmo:42917:1,2021-12-17T09:55:00Z,27.3878,-90.6592,11.0,25.7,11111222
Amerada Hess,ioos:station:wmo:42917:1,2021-12-17T10:05:00Z,27.3883,-90.6588,11.0,25.7,11111222
Amerada Hess,ioos:station:wmo:42917:1,2021-12-17T10:15:00Z,27.3881,-90.6588,11.0,25.6,11111222
Amerada Hess,ioos:station:wmo:42917:1,2021-12-17T10:25:00Z,27.3883,-90.6590,11.0,25.7,11111222
Amerada Hess,ioos:station:wmo:42917:1,2021-12-17T10:35:00Z,27.3884,-90.6590,11.0,25.7,11111222
Amerada Hess,ioos:station:wmo:42917:1,2021-12-17T10:45:00Z,27.3884,-90.6590,11.0,25.7,11111222
Amerada Hess,ioos:station:wmo:42917:1,2021-12-17T10:55:00Z,27.3883,-90.6591,11.0,25.7,11111222
Amerada Hess,ioos:station:wmo:42917:1,2021-12-17T11:05:00Z,27.3883,-90.6591,11.0,25.6,11111222
Amerada Hess,ioos:station:wmo:42917:1,2021-12-17T11:15:00Z,27.3884,-90.6592,11.0,25.6,11111222
Amerada Hess,ioos:station:wmo:42917:1,2021-12-17T11:25:00Z,27.3884,-90.6591,11.0,25.6,11111222
Amerada Hess,ioos:station:wmo:42917:1,2021-12-17T11:35:00Z,27.3884,-90.6590,11.0,25.6,11111222
Amerada Hess,ioos:station:wmo:42917:1,2021-12-17T11:45:00Z,27.3883,-90.6591,11.0,25.6,11111222
Amerada Hess,ioos:station:wmo:42917:1,2021-12-17T11:55:00Z,27.3884,-90.6588,11.0,25.6,11111222
Amerada Hess,ioos:station:wmo:42917:1,2021-12-17T12:05:00Z,27.3883,-90.6589,11.0,25.6,11111222
Amerada Hess,ioos:station:wmo:42917:1,2021-12-17T12:15:00Z,27.3885,-90.6589,11.0,25.6,11111222
Amerada Hess,ioos:station:wmo:42917:1,2021-12-17T12:25:00Z,27.3883,-90.6589,11.0,25.6,11111222
Amerada Hess,ioos:station:wmo:42917:1,2021-12-17T12:35:00Z,27.3883,-90.6590,11.0,25.7,11111222
Amerada Hess,ioos:station:wmo:42917:1,2021-12-17T12:45:00Z,27.3883,-90.6589,11.0,25.6,11111222
Amerada Hess,ioos:station:wmo:42917:1,2021-12-17T12:55:00Z,27.3884,-90.6590,11.0,25.7,11111222
Amerada Hess,ioos:station:wmo:42917:1,2021-12-17T13:05:00Z,27.3883,-90.6591,11.0,25.7,11111222
Amerada Hess,ioos:station:wmo:42917:1,2021-12-17T13:15:00Z,27.3889,-90.6581,11.0,25.7,11111222
Amerada Hess,ioos:station:wmo:42917:1,2021-12-17T13:25:00Z,27.3889,-90.6583,11.0,25.7,11111222
Amerada Hess,ioos:station:wmo:42917:1,2021-12-17T13:35:00Z,27.3895,-90.6577,11.0,25.7,11111222
Amerada Hess,ioos:station:wmo:42917:1,2021-12-17T13:45:00Z,27.3897,-90.6575,11.0,25.7,11111222
Amerada Hess,ioos:station:wmo:42917:1,2021-12-17T13:55:00Z,27.3897,-90.6575,11.0,25.7,11111222
Amerada Hess,ioos:station:wmo:42917:1,2021-12-17T14:05:00Z,27.3900,-90.6571,11.0,25.7,11111222
Amerada Hess,ioos:station:wmo:42917:1,2021-12-17T14:15:00Z,27.3902,-90.6566,11.0,25.7,11111222
Amerada Hess,ioos:station:wmo:42917:1,2021-12-17T14:25:00Z,27.3904,-90.6566,11.0,25.7,11111222
Amerada Hess,ioos:station:wmo:42917:1,2021-12-17T14:35:00Z,27.3916,-90.6553,11.0,25.8,11111222
Amerada Hess,ioos:station:wmo:42917:1,2021-12-17T14:45:00Z,27.3917,-90.6553,11.0,25.8,11111222
Amerada Hess,ioos:station:wmo:42917:1,2021-12-17T14:55:00Z,27.3927,-90.6540,11.0,25.7,11111222
Amerada Hess,ioos:station:wmo:42917:1,2021-12-17T15:05:00Z,27.3935,-90.6526,11.0,25.8,11111222
Amerada Hess,ioos:station:wmo:42917:1,2021-12-17T15:15:00Z,27.3937,-90.6522,11.0,25.8,11111222
Amerada Hess,ioos:station:wmo:42917:1,2021-12-17T15:25:00Z,27.3938,-90.6523,11.0,25.8,11111222
Amerada Hess,ioos:station:wmo:42917:1,2021-12-17T15:35:00Z,27.3937,-90.6523,11.0,25.8,11111222
Amerada Hess,ioos:station:wmo:42917:1,2021-12-17T15:45:00Z,27.3936,-90.6524,11.0,25.8,11111222
Amerada Hess,ioos:station:wmo:42917:1,2021-12-17T15:55:00Z,27.3936,-90.6523,11.0,25.8,11111222
Amerada Hess,ioos:station:wmo:42917:1,2021-12-17T16:05:00Z,27.3937,-90.6523,11.0,25.8,11111222
Amerada Hess,ioos:station:wmo:42917:1,2021-12-17T16:15:00Z,27.3937,-90.6524,11.0,25.8,11111222
Amerada Hess,ioos:station:wmo:42917:1,2021-12-17T16:25:00Z,27.3937,-90.6524,11.0,25.8,11111222
Amerada Hess,ioos:station:wmo:42917:1,2021-12-17T16:35:00Z,27.3936,-90.6523,11.0,25.8,11111222
Amerada Hess,ioos:station:wmo:42917:1,2021-12-17T16:45:00Z,27.3936,-90.6523,11.0,25.8,11111222
Amerada Hess,ioos:station:wmo:42917:1,2021-12-17T16:55:00Z,27.3936,-90.6524,11.0,25.8,11111222
Amerada Hess,ioos:station:wmo:42917:1,2021-12-17T17:05:00Z,27.3936,-90.6525,11.0,25.8,11111222
Amerada Hess,ioos:station:wmo:42917:1,2021-12-17T17:15:00Z,27.3935,-90.6523,11.0,25.8,11111222
Amerada Hess,ioos:station:wmo:42917:1,2021-12-17T17:25:00Z,27.3935,-90.6524,11.0,25.8,11111222
Amerada Hess,ioos:station:wmo:42917:1,2021-12-17T17:35:00Z,27.3935,-90.6525,11.0,25.8,11111222
Amerada Hess,ioos:station:wmo:42917:1,2021-12-17T17:45:00Z,27.3936,-90.6523,11.0,25.8,11111222
Amerada Hess,ioos:station:wmo:42917:1,2021-12-17T17:55:00Z,27.3936,-90.6522,11.0,25.8,11111222
Amerada Hess,ioos:station:wmo:42917:1,2021-12-17T18:05:00Z,27.3934,-90.6523,11.0,25.7,11111222
Amerada Hess,ioos:station:wmo:42917:1,2021-12-17T18:15:00Z,27.3936,-90.6525,11.0,25.7,11111222
Amerada Hess,ioos:station:wmo:42917:1,2021-12-17T18:25:00Z,27.3937,-90.6524,11.0,25.7,11111222
Amerada Hess,ioos:station:wmo:42917:1,2021-12-17T18:35:00Z,27.3936,-90.6525,11.0,25.7,11111222
Amerada Hess,ioos:station:wmo:42917:1,2021-12-17T18:45:00Z,27.3939,-90.6521,11.0,25.7,11111222
Amerada Hess,ioos:station:wmo:42917:1,2021-12-17T18:55:00Z,27.3938,-90.6523,11.0,25.7,11111222
Amerada Hess,ioos:station:wmo:42917:1,2021-12-17T19:05:00Z,27.3940,-90.6520,11.0,25.7,11111222
Amerada Hess,ioos:station:wmo:42917:1,2021-12-17T19:15:00Z,27.3939,-90.6520,11.0,25.7,11111222
Amerada Hess,ioos:station:wmo:42917:1,2021-12-17T19:25:00Z,27.3939,-90.6520,11.0,25.8,11111222
Amerada Hess,ioos:station:wmo:42917:1,2021-12-17T19:35:00Z,27.3941,-90.6519,11.0,25.7,11111222
Amerada Hess,ioos:station:wmo:42917:1,2021-12-17T19:45:00Z,27.3945,-90.6514,11.0,25.7,11111222
Amerada Hess,ioos:station:wmo:42917:1,2021-12-17T19:55:00Z,27.3947,-90.6511,11.0,25.7,11111222
Amerada Hess,ioos:station:wmo:42917:1,2021-12-17T20:05:00Z,27.3951,-90.6508,11.0,25.7,11111222
Amerada Hess,ioos:station:wmo:42917:1,2021-12-17T20:15:00Z,27.3951,-90.6506,11.0,25.7,11111222
Amerada Hess,ioos:station:wmo:42917:1,2021-12-17T20:25:00Z,27.3955,-90.6503,11.0,25.6,11111222
Amerada Hess,ioos:station:wmo:42917:1,2021-12-17T20:35:00Z,27.3964,-90.6492,11.0,25.6,11111222